Time,TemperatureF,DewpointF,PressureIn,WindDirection,WindDirectionDegrees,WindSpeedMPH,WindSpeedGustMPH,Humidity,HourlyPrecipIn,Conditions,Clouds,dailyrainin,SoftwareType,DateUTC
2013-06-26 00:01:00,57.8,51.9,29.55,North,0,0.0,-999.0,80,0.00,,,-99.99,,2013-06-26 08:01:00,
2013-06-26 00:07:00,57.8,51.6,29.55,North,0,0.0,-999.0,79,0.00,,,-99.99,,2013-06-26 08:07:00,
2013-06-26 00:13:00,58.0,52.0,29.55,North,0,0.0,-999.0,80,0.00,,,-99.99,,2013-06-26 08:13:00,
2013-06-26 00:18:00,57.8,51.8,29.55,North,0,0.0,-999.0,80,0.00,,,-99.99,,2013-06-26 08:18:00,
2013-06-26 00:23:00,57.8,51.9,29.55,North,0,0.0,-999.0,80,0.00,,,-99.99,,2013-06-26 08:23:00,
2013-06-26 00:28:00,57.5,51.9,29.55,North,0,0.0,-999.0,81,0.00,,,-99.99,,2013-06-26 08:28:00,
2013-06-26 00:33:00,57.3,51.8,29.55,North,0,0.0,-999.0,81,0.00,,,-99.99,,2013-06-26 08:33:00,
2013-06-26 00:38:00,57.1,51.8,29.55,North,0,0.0,-999.0,82,0.00,,,-99.99,,2013-06-26 08:38:00,
2013-06-26 00:43:00,57.2,52.0,29.55,North,0,0.0,-999.0,82,0.00,,,-99.99,,2013-06-26 08:43:00,
2013-06-26 00:48:00,57.3,52.1,29.55,North,0,0.0,-999.0,82,0.00,,,-99.99,,2013-06-26 08:48:00,
2013-06-26 00:53:00,57.5,52.3,29.55,North,0,0.0,-999.0,82,0.00,,,-99.99,,2013-06-26 08:53:00,
2013-06-26 00:58:00,57.3,52.4,29.55,North,0,0.0,-999.0,83,0.00,,,-99.99,,2013-06-26 08:58:00,
2013-06-26 01:03:00,57.3,52.3,29.55,North,0,0.0,-999.0,83,0.00,,,-99.99,,2013-06-26 09:03:00,
2013-06-26 01:08:00,57.2,52.5,29.55,North,0,0.0,-999.0,84,0.00,,,-99.99,,2013-06-26 09:08:00,
2013-06-26 01:13:00,56.8,52.2,29.55,North,0,0.0,-999.0,84,0.00,,,-99.99,,2013-06-26 09:13:00,
2013-06-26 01:18:00,56.9,52.4,29.55,North,0,0.0,-999.0,84,0.00,,,-99.99,,2013-06-26 09:18:00,
2013-06-26 01:23:00,56.8,52.3,29.55,North,0,0.0,-999.0,84,0.00,,,-99.99,,2013-06-26 09:23:00,
2013-06-26 01:28:00,57.1,52.4,29.55,North,0,0.0,-999.0,84,0.00,,,-99.99,,2013-06-26 09:28:00,
2013-06-26 01:33:00,57.0,52.3,29.55,North,0,0.0,-999.0,84,0.00,,,-99.99,,2013-06-26 09:33:00,
2013-06-26 01:38:00,56.7,52.4,29.55,North,0,0.0,-999.0,85,0.00,,,-99.99,,2013-06-26 09:38:00,
2013-06-26 01:43:00,56.4,52.0,29.55,North,0,0.0,-999.0,85,0.00,,,-99.99,,2013-06-26 09:43:00,
2013-06-26 01:48:00,56.4,52.0,29.55,North,0,0.0,-999.0,85,0.00,,,-99.99,,2013-06-26 09:48:00,
2013-06-26 01:53:00,56.4,52.1,29.55,North,0,0.0,-999.0,85,0.00,,,-99.99,,2013-06-26 09:53:00,
2013-06-26 01:58:00,56.2,51.9,29.55,North,0,0.0,-999.0,85,0.00,,,-99.99,,2013-06-26 09:58:00,
2013-06-26 02:03:00,56.5,52.2,29.56,North,0,0.0,-999.0,85,0.00,,,-99.99,,2013-06-26 10:03:00,
2013-06-26 02:08:00,56.5,52.3,29.56,North,0,0.0,-999.0,85,0.00,,,-99.99,,2013-06-26 10:08:00,
2013-06-26 02:13:00,56.4,51.8,29.56,North,0,0.0,-999.0,84,0.00,,,-99.99,,2013-06-26 10:13:00,
2013-06-26 02:18:00,56.3,51.8,29.56,North,0,0.0,-999.0,84,0.00,,,-99.99,,2013-06-26 10:18:00,
2013-06-26 02:24:00,56.0,51.4,29.56,North,0,0.0,-999.0,84,0.00,,,-99.99,,2013-06-26 10:24:00,
2013-06-26 02:29:00,56.1,51.6,29.56,North,0,0.0,-999.0,84,0.00,,,-99.99,,2013-06-26 10:29:00,
2013-06-26 02:34:00,55.8,51.2,29.56,North,0,0.0,-999.0,84,0.00,,,-99.99,,2013-06-26 10:34:00,
2013-06-26 02:39:00,55.5,51.0,29.56,North,0,0.0,-999.0,84,0.00,,,-99.99,,2013-06-26 10:39:00,
2013-06-26 02:44:00,55.5,51.2,29.56,North,0,0.0,-999.0,85,0.00,,,-99.99,,2013-06-26 10:44:00,
2013-06-26 02:49:00,55.4,51.0,29.56,North,0,0.0,-999.0,85,0.00,,,-99.99,,2013-06-26 10:49:00,
2013-06-26 02:54:00,55.5,51.0,29.56,North,0,0.0,-999.0,84,0.00,,,-99.99,,2013-06-26 10:54:00,
2013-06-26 02:59:00,55.5,50.6,29.56,North,0,0.0,-999.0,83,0.00,,,-99.99,,2013-06-26 10:59:00,
2013-06-26 03:04:00,55.5,50.5,29.56,North,0,0.0,-999.0,83,0.00,,,-99.99,,2013-06-26 11:04:00,
2013-06-26 03:09:00,55.4,50.4,29.56,North,0,0.0,-999.0,83,0.00,,,-99.99,,2013-06-26 11:09:00,
2013-06-26 03:14:00,55.4,50.4,29.56,North,0,0.0,-999.0,83,0.00,,,-99.99,,2013-06-26 11:14:00,
2013-06-26 03:19:00,55.6,50.7,29.56,North,0,0.0,-999.0,83,0.00,,,-99.99,,2013-06-26 11:19:00,
2013-06-26 03:24:00,55.2,50.3,29.56,North,0,0.0,-999.0,83,0.00,,,-99.99,,2013-06-26 11:24:00,
2013-06-26 03:29:00,55.2,50.0,29.56,North,0,0.0,-999.0,82,0.00,,,-99.99,,2013-06-26 11:29:00,
2013-06-26 03:34:00,55.0,50.1,29.56,North,0,0.0,-999.0,83,0.00,,,-99.99,,2013-06-26 11:34:00,
2013-06-26 03:39:00,55.5,50.8,29.56,North,0,0.0,-999.0,84,0.00,,,-99.99,,2013-06-26 11:39:00,
2013-06-26 03:44:00,55.4,50.5,29.56,North,0,0.0,-999.0,83,0.00,,,-99.99,,2013-06-26 11:44:00,
2013-06-26 03:49:00,55.3,50.3,29.56,North,0,0.0,-999.0,83,0.00,,,-99.99,,2013-06-26 11:49:00,
2013-06-26 03:54:00,55.2,50.0,29.56,North,0,0.0,-999.0,82,0.00,,,-99.99,,2013-06-26 11:54:00,
2013-06-26 03:59:00,55.2,50.1,29.56,North,0,0.0,-999.0,82,0.00,,,-99.99,,2013-06-26 11:59:00,
2013-06-26 04:04:00,55.1,50.0,29.56,North,0,0.0,-999.0,82,0.00,,,-99.99,,2013-06-26 12:04:00,
2013-06-26 04:09:00,55.2,50.1,29.56,North,0,0.0,-999.0,82,0.00,,,-99.99,,2013-06-26 12:09:00,
2013-06-26 04:14:00,54.9,50.0,29.56,North,0,0.0,-999.0,83,0.00,,,-99.99,,2013-06-26 12:14:00,
2013-06-26 04:19:00,54.7,50.1,29.56,North,0,0.0,-999.0,84,0.00,,,-99.99,,2013-06-26 12:19:00,
2013-06-26 04:24:00,54.3,49.8,29.56,North,0,0.0,-999.0,84,0.00,,,-99.99,,2013-06-26 12:24:00,
2013-06-26 04:29:00,54.5,50.1,29.56,North,0,0.0,-999.0,85,0.00,,,-99.99,,2013-06-26 12:29:00,
2013-06-26 04:34:00,55.0,50.7,29.56,North,0,0.0,-999.0,85,0.00,,,-99.99,,2013-06-26 12:34:00,
2013-06-26 04:39:00,55.0,50.2,29.56,North,0,0.0,-999.0,83,0.00,,,-99.99,,2013-06-26 12:39:00,
2013-06-26 04:44:00,55.3,50.4,29.56,North,0,0.0,-999.0,83,0.00,,,-99.99,,2013-06-26 12:44:00,
2013-06-26 04:49:00,55.3,50.4,29.56,North,0,0.0,-999.0,83,0.00,,,-99.99,,2013-06-26 12:49:00,
2013-06-26 04:54:00,55.0,50.2,29.56,North,0,0.0,-999.0,83,0.00,,,-99.99,,2013-06-26 12:54:00,
2013-06-26 04:59:00,54.6,50.3,29.55,North,0,0.0,-999.0,85,0.00,,,-99.99,,2013-06-26 12:59:00,
2013-06-26 05:04:00,54.2,50.0,29.55,North,0,0.0,-999.0,85,0.00,,,-99.99,,2013-06-26 13:04:00,
2013-06-26 05:09:00,54.6,50.4,29.55,North,0,0.0,-999.0,85,0.00,,,-99.99,,2013-06-26 13:09:00,
2013-06-26 05:14:00,55.0,50.7,29.55,North,0,0.0,-999.0,85,0.00,,,-99.99,,2013-06-26 13:14:00,
2013-06-26 05:19:00,55.4,50.8,29.55,North,0,0.0,-999.0,84,0.00,,,-99.99,,2013-06-26 13:19:00,
2013-06-26 05:24:00,55.4,50.7,29.55,North,0,0.0,-999.0,83,0.00,,,-99.99,,2013-06-26 13:24:00,
2013-06-26 05:29:00,55.5,50.7,29.55,North,0,0.0,-999.0,83,0.00,,,-99.99,,2013-06-26 13:29:00,
2013-06-26 05:34:00,55.3,50.5,29.55,North,0,0.0,-999.0,83,0.00,,,-99.99,,2013-06-26 13:34:00,
2013-06-26 05:39:00,55.4,50.6,29.55,North,0,0.0,-999.0,83,0.00,,,-99.99,,2013-06-26 13:39:00,
2013-06-26 05:44:00,55.2,50.6,29.55,North,0,0.0,-999.0,84,0.00,,,-99.99,,2013-06-26 13:44:00,
2013-06-26 05:49:00,55.3,50.6,29.55,North,0,0.0,-999.0,83,0.00,,,-99.99,,2013-06-26 13:49:00,
2013-06-26 05:54:00,55.5,50.8,29.55,North,0,0.0,-999.0,83,0.00,,,-99.99,,2013-06-26 13:54:00,
2013-06-26 05:59:00,55.5,50.6,29.55,North,0,0.0,-999.0,83,0.00,,,-99.99,,2013-06-26 13:59:00,
2013-06-26 06:04:00,55.6,50.6,29.55,North,0,0.0,-999.0,83,0.00,,,-99.99,,2013-06-26 14:04:00,
2013-06-26 06:09:00,55.8,50.9,29.55,North,0,0.0,-999.0,83,0.00,,,-99.99,,2013-06-26 14:09:00,
2013-06-26 06:14:00,55.6,50.7,29.55,North,0,0.0,-999.0,83,0.00,,,-99.99,,2013-06-26 14:14:00,
2013-06-26 06:19:00,55.6,50.6,29.55,North,0,0.0,-999.0,83,0.00,,,-99.99,,2013-06-26 14:19:00,
2013-06-26 06:24:00,55.8,50.7,29.55,North,0,0.0,-999.0,82,0.00,,,-99.99,,2013-06-26 14:24:00,
2013-06-26 06:29:00,56.2,50.7,29.55,North,0,0.0,-999.0,81,0.00,,,-99.99,,2013-06-26 14:29:00,
2013-06-26 06:34:00,56.4,50.7,29.55,North,0,0.0,-999.0,81,0.00,,,-99.99,,2013-06-26 14:34:00,
2013-06-26 06:39:00,56.7,51.0,29.55,North,0,0.0,-999.0,81,0.00,,,-99.99,,2013-06-26 14:39:00,
2013-06-26 06:44:00,56.9,51.1,29.55,North,0,0.0,-999.0,80,0.00,,,-99.99,,2013-06-26 14:44:00,
2013-06-26 06:49:00,57.1,51.3,29.55,North,0,0.0,-999.0,80,0.00,,,-99.99,,2013-06-26 14:49:00,
2013-06-26 06:54:00,57.2,51.3,29.55,North,0,0.0,-999.0,80,0.00,,,-99.99,,2013-06-26 14:54:00,
2013-06-26 06:59:00,57.2,51.3,29.55,North,0,0.0,-999.0,80,0.00,,,-99.99,,2013-06-26 14:59:00,
2013-06-26 07:04:00,57.2,51.5,29.55,North,0,0.0,-999.0,81,0.00,,,-99.99,,2013-06-26 15:04:00,
2013-06-26 07:09:00,57.5,51.7,29.55,North,0,0.0,-999.0,80,0.00,,,-99.99,,2013-06-26 15:09:00,
2013-06-26 07:14:00,57.6,51.8,29.55,North,0,0.0,-999.0,80,0.00,,,-99.99,,2013-06-26 15:14:00,
2013-06-26 07:19:00,57.9,52.1,29.55,North,0,0.0,-999.0,80,0.00,,,-99.99,,2013-06-26 15:19:00,
2013-06-26 07:24:00,59.3,52.6,29.55,North,0,0.0,-999.0,78,0.00,,,-99.99,,2013-06-26 15:24:00,
2013-06-26 07:29:00,60.5,52.6,29.55,North,0,0.0,-999.0,74,0.00,,,-99.99,,2013-06-26 15:29:00,
2013-06-26 07:34:00,60.2,52.3,29.55,North,0,0.0,-999.0,75,0.00,,,-99.99,,2013-06-26 15:34:00,
2013-06-26 07:39:00,60.2,52.7,29.55,North,0,0.0,-999.0,75,0.00,,,-99.99,,2013-06-26 15:39:00,
2013-06-26 07:44:00,60.4,53.0,29.55,North,0,0.0,-999.0,76,0.00,,,-99.99,,2013-06-26 15:44:00,
2013-06-26 07:49:00,60.6,52.9,29.55,North,0,0.0,-999.0,75,0.00,,,-99.99,,2013-06-26 15:49:00,
2013-06-26 07:54:00,60.8,53.1,29.55,North,0,0.0,-999.0,75,0.00,,,-99.99,,2013-06-26 15:54:00,
2013-06-26 07:59:00,62.5,53.8,29.52,North,0,0.0,-999.0,73,0.00,,,-99.99,,2013-06-26 15:59:00,
2013-06-26 08:04:00,64.2,54.1,29.52,North,0,0.0,-999.0,69,0.00,,,-99.99,,2013-06-26 16:04:00,
2013-06-26 08:09:00,66.3,54.8,29.52,North,0,0.0,-999.0,66,0.00,,,-99.99,,2013-06-26 16:09:00,
2013-06-26 08:14:00,66.4,55.4,29.52,North,0,0.0,-999.0,67,0.00,,,-99.99,,2013-06-26 16:14:00,
2013-06-26 08:19:00,67.6,56.1,29.52,North,0,0.0,-999.0,66,0.00,,,-99.99,,2013-06-26 16:19:00,
2013-06-26 08:24:00,68.4,56.1,29.52,North,0,0.0,-999.0,64,0.00,,,-99.99,,2013-06-26 16:24:00,
2013-06-26 08:29:00,69.1,55.1,29.52,North,0,0.0,-999.0,60,0.00,,,-99.99,,2013-06-26 16:29:00,
2013-06-26 08:34:00,69.4,54.8,29.52,North,0,0.0,-999.0,59,0.00,,,-99.99,,2013-06-26 16:34:00,
2013-06-26 08:39:00,69.8,54.1,29.52,North,0,0.0,-999.0,57,0.00,,,-99.99,,2013-06-26 16:39:00,
2013-06-26 08:44:00,71.7,54.3,29.52,North,0,0.0,-999.0,54,0.00,,,-99.99,,2013-06-26 16:44:00,
2013-06-26 08:49:00,72.4,54.6,29.52,North,0,0.0,-999.0,53,0.00,,,-99.99,,2013-06-26 16:49:00,
2013-06-26 08:54:00,73.2,55.8,29.52,North,0,0.0,-999.0,54,0.00,,,-99.99,,2013-06-26 16:54:00,
2013-06-26 08:59:00,70.2,51.5,29.52,North,0,0.0,-999.0,51,0.00,,,-99.99,,2013-06-26 16:59:00,
2013-06-26 09:04:00,68.6,52.9,29.52,North,0,0.0,-999.0,57,0.00,,,-99.99,,2013-06-26 17:04:00,
2013-06-26 09:09:00,68.6,53.2,29.52,North,0,0.0,-999.0,57,0.00,,,-99.99,,2013-06-26 17:09:00,
2013-06-26 09:14:00,68.8,54.6,29.52,North,0,0.0,-999.0,60,0.00,,,-99.99,,2013-06-26 17:14:00,
2013-06-26 09:19:00,69.7,53.5,29.52,North,0,0.0,-999.0,56,0.00,,,-99.99,,2013-06-26 17:19:00,
2013-06-26 09:24:00,69.4,54.5,29.52,North,0,0.0,-999.0,59,0.00,,,-99.99,,2013-06-26 17:24:00,
2013-06-26 09:29:00,69.6,53.9,29.52,North,0,0.0,-999.0,57,0.00,,,-99.99,,2013-06-26 17:29:00,
2013-06-26 09:34:00,71.5,54.5,29.52,North,0,0.0,-999.0,54,0.00,,,-99.99,,2013-06-26 17:34:00,
2013-06-26 09:39:00,73.0,53.6,29.52,North,0,0.0,-999.0,50,0.00,,,-99.99,,2013-06-26 17:39:00,
2013-06-26 09:44:00,73.8,51.0,29.52,North,0,0.0,-999.0,44,0.00,,,-99.99,,2013-06-26 17:44:00,
2013-06-26 09:49:00,74.7,53.6,29.52,North,0,0.0,-999.0,47,0.00,,,-99.99,,2013-06-26 17:49:00,
2013-06-26 09:54:00,74.9,53.6,29.52,North,0,0.0,-999.0,47,0.00,,,-99.99,,2013-06-26 17:54:00,
2013-06-26 09:59:00,75.0,54.0,29.52,North,0,0.0,-999.0,47,0.00,,,-99.99,,2013-06-26 17:59:00,
2013-06-26 10:04:00,75.1,53.5,29.52,North,0,0.0,-999.0,46,0.00,,,-99.99,,2013-06-26 18:04:00,
2013-06-26 10:09:00,75.1,53.3,29.52,North,0,0.0,-999.0,46,0.00,,,-99.99,,2013-06-26 18:09:00,
2013-06-26 10:13:00,74.9,52.7,29.52,North,0,0.0,-999.0,45,0.00,,,-99.99,,2013-06-26 18:13:00,
2013-06-26 10:18:00,75.6,52.6,29.52,North,0,0.0,-999.0,44,0.00,,,-99.99,,2013-06-26 18:18:00,
2013-06-26 10:23:00,75.5,49.7,29.52,North,0,0.0,-999.0,40,0.00,,,-99.99,,2013-06-26 18:23:00,
2013-06-26 10:28:00,75.8,52.1,29.52,North,0,0.0,-999.0,43,0.00,,,-99.99,,2013-06-26 18:28:00,
2013-06-26 10:33:00,75.8,53.3,29.52,North,0,0.0,-999.0,45,0.00,,,-99.99,,2013-06-26 18:33:00,
2013-06-26 10:38:00,75.8,53.1,29.52,North,0,0.0,-999.0,45,0.00,,,-99.99,,2013-06-26 18:38:00,
2013-06-26 10:43:00,75.3,50.9,29.52,North,0,0.0,-999.0,42,0.00,,,-99.99,,2013-06-26 18:43:00,
2013-06-26 10:48:00,75.1,52.5,29.52,North,0,0.0,-999.0,45,0.00,,,-99.99,,2013-06-26 18:48:00,
2013-06-26 10:53:00,76.2,53.3,29.52,North,0,0.0,-999.0,45,0.00,,,-99.99,,2013-06-26 18:53:00,
2013-06-26 10:58:00,76.6,53.1,29.52,North,0,0.0,-999.0,44,0.00,,,-99.99,,2013-06-26 18:58:00,
2013-06-26 11:03:00,76.5,52.9,29.52,North,0,0.0,-999.0,43,0.00,,,-99.99,,2013-06-26 19:03:00,
2013-06-26 11:08:00,76.5,52.5,29.52,North,0,0.0,-999.0,43,0.00,,,-99.99,,2013-06-26 19:08:00,
2013-06-26 11:13:00,75.8,52.2,29.52,North,0,0.0,-999.0,43,0.00,,,-99.99,,2013-06-26 19:13:00,
2013-06-26 11:18:00,75.5,52.8,29.52,North,0,0.0,-999.0,45,0.00,,,-99.99,,2013-06-26 19:18:00,
2013-06-26 11:23:00,74.4,52.5,29.52,North,0,0.0,-999.0,46,0.00,,,-99.99,,2013-06-26 19:23:00,
2013-06-26 11:28:00,75.3,53.3,29.52,North,0,0.0,-999.0,46,0.00,,,-99.99,,2013-06-26 19:28:00,
2013-06-26 11:33:00,75.2,49.6,29.52,North,0,0.0,-999.0,40,0.00,,,-99.99,,2013-06-26 19:33:00,
2013-06-26 11:38:00,75.1,51.9,29.52,North,0,0.0,-999.0,44,0.00,,,-99.99,,2013-06-26 19:38:00,
2013-06-26 11:43:00,75.8,53.1,29.52,North,0,0.0,-999.0,45,0.00,,,-99.99,,2013-06-26 19:43:00,
2013-06-26 11:48:00,75.2,53.4,29.52,North,0,0.0,-999.0,46,0.00,,,-99.99,,2013-06-26 19:48:00,
2013-06-26 11:53:00,76.3,52.4,29.52,North,0,0.0,-999.0,43,0.00,,,-99.99,,2013-06-26 19:53:00,
2013-06-26 11:58:00,76.9,52.5,29.52,North,0,0.0,-999.0,42,0.00,,,-99.99,,2013-06-26 19:58:00,
2013-06-26 12:03:00,76.5,51.9,29.53,North,0,0.0,-999.0,42,0.00,,,-99.99,,2013-06-26 20:03:00,
2013-06-26 12:08:00,76.9,52.2,29.53,North,0,0.0,-999.0,42,0.00,,,-99.99,,2013-06-26 20:08:00,
2013-06-26 12:13:00,76.6,51.6,29.53,North,0,0.0,-999.0,41,0.00,,,-99.99,,2013-06-26 20:13:00,
2013-06-26 12:18:00,77.1,51.9,29.53,North,0,0.0,-999.0,41,0.00,,,-99.99,,2013-06-26 20:18:00,
2013-06-26 12:23:00,77.1,51.0,29.53,North,0,0.0,-999.0,40,0.00,,,-99.99,,2013-06-26 20:23:00,
2013-06-26 12:28:00,77.4,52.0,29.53,North,0,0.0,-999.0,41,0.00,,,-99.99,,2013-06-26 20:28:00,
2013-06-26 12:33:00,78.1,52.1,29.53,North,0,0.0,-999.0,40,0.00,,,-99.99,,2013-06-26 20:33:00,
2013-06-26 12:38:00,77.8,53.2,29.53,North,0,0.0,-999.0,42,0.00,,,-99.99,,2013-06-26 20:38:00,
2013-06-26 12:44:00,78.2,52.2,29.53,North,0,0.0,-999.0,40,0.00,,,-99.99,,2013-06-26 20:44:00,
2013-06-26 12:49:00,77.8,53.4,29.53,North,0,0.0,-999.0,42,0.00,,,-99.99,,2013-06-26 20:49:00,
2013-06-26 12:54:00,77.6,53.3,29.53,North,0,0.0,-999.0,42,0.00,,,-99.99,,2013-06-26 20:54:00,
2013-06-26 12:59:00,78.2,54.7,29.54,North,0,0.0,-999.0,44,0.00,,,-99.99,,2013-06-26 20:59:00,
2013-06-26 13:04:00,78.4,53.6,29.54,North,0,0.0,-999.0,42,0.00,,,-99.99,,2013-06-26 21:04:00,
2013-06-26 13:09:00,78.7,53.6,29.54,North,0,0.0,-999.0,41,0.00,,,-99.99,,2013-06-26 21:09:00,
2013-06-26 13:14:00,78.9,52.7,29.54,North,0,0.0,-999.0,40,0.00,,,-99.99,,2013-06-26 21:14:00,
2013-06-26 13:19:00,78.8,53.7,29.54,North,0,0.0,-999.0,41,0.00,,,-99.99,,2013-06-26 21:19:00,
2013-06-26 13:24:00,78.4,54.5,29.54,North,0,0.0,-999.0,43,0.00,,,-99.99,,2013-06-26 21:24:00,
2013-06-26 13:29:00,78.3,53.0,29.54,North,0,0.0,-999.0,41,0.00,,,-99.99,,2013-06-26 21:29:00,
2013-06-26 13:34:00,79.4,54.0,29.54,North,0,0.0,-999.0,41,0.00,,,-99.99,,2013-06-26 21:34:00,
2013-06-26 13:39:00,80.1,51.6,29.54,North,0,0.0,-999.0,37,0.00,,,-99.99,,2013-06-26 21:39:00,
2013-06-26 13:44:00,79.8,51.6,29.54,North,0,0.0,-999.0,37,0.00,,,-99.99,,2013-06-26 21:44:00,
2013-06-26 13:49:00,79.6,53.6,29.54,North,0,0.0,-999.0,40,0.00,,,-99.99,,2013-06-26 21:49:00,
2013-06-26 13:54:00,79.7,50.1,29.54,North,0,0.0,-999.0,35,0.00,,,-99.99,,2013-06-26 21:54:00,
2013-06-26 13:59:00,79.8,53.1,29.56,North,0,0.0,-999.0,39,0.00,,,-99.99,,2013-06-26 21:59:00,
2013-06-26 14:04:00,79.6,53.1,29.56,North,0,0.0,-999.0,39,0.00,,,-99.99,,2013-06-26 22:04:00,
2013-06-26 14:09:00,78.5,50.8,29.56,North,0,0.0,-999.0,38,0.00,,,-99.99,,2013-06-26 22:09:00,
2013-06-26 14:14:00,77.7,52.3,29.56,North,0,0.0,-999.0,41,0.00,,,-99.99,,2013-06-26 22:14:00,
2013-06-26 14:19:00,78.8,51.8,29.56,North,0,0.0,-999.0,39,0.00,,,-99.99,,2013-06-26 22:19:00,
2013-06-26 14:24:00,78.6,50.6,29.56,North,0,0.0,-999.0,37,0.00,,,-99.99,,2013-06-26 22:24:00,
2013-06-26 14:29:00,77.9,50.8,29.56,North,0,0.0,-999.0,38,0.00,,,-99.99,,2013-06-26 22:29:00,
2013-06-26 14:35:00,78.3,53.3,29.56,North,0,0.0,-999.0,41,0.00,,,-99.99,,2013-06-26 22:35:00,
2013-06-26 14:40:00,78.9,52.6,29.56,North,0,0.0,-999.0,40,0.00,,,-99.99,,2013-06-26 22:40:00,
2013-06-26 14:45:00,78.5,51.3,29.56,North,0,0.0,-999.0,38,0.00,,,-99.99,,2013-06-26 22:45:00,
2013-06-26 14:50:00,78.3,51.9,29.56,North,0,0.0,-999.0,39,0.00,,,-99.99,,2013-06-26 22:50:00,
2013-06-26 14:55:00,78.6,51.4,29.56,North,0,0.0,-999.0,38,0.00,,,-99.99,,2013-06-26 22:55:00,
2013-06-26 15:00:00,77.8,52.7,29.58,North,0,0.0,-999.0,41,0.00,,,-99.99,,2013-06-26 23:00:00,
2013-06-26 15:05:00,77.4,50.9,29.58,North,0,0.0,-999.0,39,0.00,,,-99.99,,2013-06-26 23:05:00,
2013-06-26 15:10:00,70.7,48.6,29.58,North,0,0.0,-999.0,45,0.00,,,-99.99,,2013-06-26 23:10:00,
2013-06-26 15:15:00,64.1,48.1,29.58,North,0,0.0,-999.0,55,0.00,,,-99.99,,2013-06-26 23:15:00,
2013-06-26 15:20:00,61.7,48.7,29.58,North,0,0.0,-999.0,62,0.00,,,-99.99,,2013-06-26 23:20:00,
2013-06-26 15:25:00,59.6,48.2,29.58,North,0,0.0,-999.0,65,0.00,,,-99.99,,2013-06-26 23:25:00,
2013-06-26 15:30:00,58.2,48.0,29.58,North,0,0.0,-999.0,68,0.00,,,-99.99,,2013-06-26 23:30:00,
2013-06-26 15:35:00,58.0,48.4,29.58,North,0,0.0,-999.0,70,0.00,,,-99.99,,2013-06-26 23:35:00,
2013-06-26 15:40:00,60.2,49.6,29.58,North,0,0.0,-999.0,67,0.00,,,-99.99,,2013-06-26 23:40:00,
2013-06-26 15:45:00,59.5,48.1,29.58,North,0,0.0,-999.0,65,0.00,,,-99.99,,2013-06-26 23:45:00,
2013-06-26 15:50:00,58.3,48.1,29.58,North,0,0.0,-999.0,68,0.00,,,-99.99,,2013-06-26 23:50:00,
2013-06-26 15:55:00,57.2,48.0,29.58,North,0,0.0,-999.0,71,0.00,,,-99.99,,2013-06-26 23:55:00,
2013-06-26 16:00:00,58.0,48.4,29.63,North,0,0.0,-999.0,70,0.00,,,-99.99,,2013-06-27 00:00:00,
2013-06-26 16:05:00,59.5,48.8,29.63,North,0,0.0,-999.0,67,0.00,,,-99.99,,2013-06-27 00:05:00,
2013-06-26 16:10:00,60.3,49.1,29.63,North,0,0.0,-999.0,66,0.00,,,-99.99,,2013-06-27 00:10:00,
2013-06-26 16:15:00,60.5,49.3,29.63,North,0,0.0,-999.0,66,0.00,,,-99.99,,2013-06-27 00:15:00,
2013-06-26 16:20:00,61.3,48.8,29.63,North,0,0.0,-999.0,63,0.00,,,-99.99,,2013-06-27 00:20:00,
2013-06-26 16:25:00,60.7,48.4,29.63,North,0,0.0,-999.0,63,0.00,,,-99.99,,2013-06-27 00:25:00,
2013-06-26 16:30:00,59.8,48.0,29.63,North,0,0.0,-999.0,65,0.00,,,-99.99,,2013-06-27 00:30:00,
2013-06-26 16:35:00,59.6,47.6,29.63,North,0,0.0,-999.0,64,0.00,,,-99.99,,2013-06-27 00:35:00,
2013-06-26 16:40:00,59.8,48.0,29.63,North,0,0.0,-999.0,64,0.00,,,-99.99,,2013-06-27 00:40:00,
2013-06-26 16:45:00,59.6,47.7,29.63,North,0,0.0,-999.0,64,0.00,,,-99.99,,2013-06-27 00:45:00,
2013-06-26 16:50:00,59.6,48.6,29.63,North,0,0.0,-999.0,66,0.00,,,-99.99,,2013-06-27 00:50:00,
2013-06-26 16:55:00,59.5,48.5,29.63,North,0,0.0,-999.0,66,0.00,,,-99.99,,2013-06-27 00:55:00,
2013-06-26 17:00:00,59.5,50.9,29.65,North,0,0.0,-999.0,73,0.00,,,-99.99,,2013-06-27 01:00:00,
2013-06-26 17:05:00,59.4,51.6,29.65,North,0,0.0,-999.0,75,0.00,,,-99.99,,2013-06-27 01:05:00,
2013-06-26 17:10:00,58.5,52.7,29.65,North,0,0.0,-999.0,81,0.00,,,-99.99,,2013-06-27 01:10:00,
2013-06-26 17:15:00,57.5,51.4,29.65,North,0,0.0,-999.0,79,0.00,,,-99.99,,2013-06-27 01:15:00,
2013-06-26 17:20:00,58.3,52.7,29.65,North,0,0.0,-999.0,81,0.00,,,-99.99,,2013-06-27 01:20:00,
2013-06-26 17:25:00,57.7,52.9,29.65,North,0,0.0,-999.0,83,0.00,,,-99.99,,2013-06-27 01:25:00,
2013-06-26 17:30:00,57.9,52.1,29.65,North,0,0.0,-999.0,80,0.00,,,-99.99,,2013-06-27 01:30:00,
2013-06-26 17:35:00,58.3,52.2,29.65,North,0,0.0,-999.0,80,0.00,,,-99.99,,2013-06-27 01:35:00,
2013-06-26 17:41:00,58.0,50.9,29.65,North,0,0.0,-999.0,77,0.00,,,-99.99,,2013-06-27 01:41:00,
2013-06-26 17:46:00,56.9,49.8,29.65,North,0,0.0,-999.0,77,0.00,,,-99.99,,2013-06-27 01:46:00,
2013-06-26 17:51:00,57.1,50.3,29.65,North,0,0.0,-999.0,77,0.00,,,-99.99,,2013-06-27 01:51:00,
2013-06-26 17:56:00,57.6,51.2,29.65,North,0,0.0,-999.0,78,0.00,,,-99.99,,2013-06-27 01:56:00,
2013-06-26 18:01:00,57.7,51.5,29.68,North,0,0.0,-999.0,79,0.00,,,-99.99,,2013-06-27 02:01:00,
2013-06-26 18:06:00,58.4,52.5,29.68,North,0,0.0,-999.0,80,0.00,,,-99.99,,2013-06-27 02:06:00,
2013-06-26 18:11:00,58.2,51.5,29.68,North,0,0.0,-999.0,78,0.00,,,-99.99,,2013-06-27 02:11:00,
2013-06-26 18:16:00,58.1,52.1,29.68,North,0,0.0,-999.0,80,0.00,,,-99.99,,2013-06-27 02:16:00,
2013-06-26 18:21:00,57.9,52.2,29.68,North,0,0.0,-999.0,81,0.00,,,-99.99,,2013-06-27 02:21:00,
2013-06-26 18:26:00,57.9,52.0,29.68,North,0,0.0,-999.0,80,0.00,,,-99.99,,2013-06-27 02:26:00,
2013-06-26 18:31:00,58.2,52.1,29.68,North,0,0.0,-999.0,80,0.00,,,-99.99,,2013-06-27 02:31:00,
2013-06-26 18:36:00,58.2,53.1,29.68,North,0,0.0,-999.0,83,0.00,,,-99.99,,2013-06-27 02:36:00,
2013-06-26 18:41:00,58.1,52.9,29.68,North,0,0.0,-999.0,82,0.00,,,-99.99,,2013-06-27 02:41:00,
2013-06-26 18:46:00,58.1,52.5,29.68,North,0,0.0,-999.0,81,0.00,,,-99.99,,2013-06-27 02:46:00,
2013-06-26 18:51:00,56.9,51.0,29.68,North,0,0.0,-999.0,80,0.00,,,-99.99,,2013-06-27 02:51:00,
2013-06-26 18:56:00,56.7,51.1,29.68,North,0,0.0,-999.0,81,0.00,,,-99.99,,2013-06-27 02:56:00,
2013-06-26 19:01:00,55.7,51.0,29.71,North,0,0.0,-999.0,83,0.00,,,-99.99,,2013-06-27 03:01:00,
2013-06-26 19:06:00,55.2,51.0,29.71,North,0,0.0,-999.0,85,0.00,,,-99.99,,2013-06-27 03:06:00,
2013-06-26 19:11:00,55.3,51.5,29.71,North,0,0.0,-999.0,86,0.00,,,-99.99,,2013-06-27 03:11:00,
2013-06-26 19:16:00,54.8,51.2,29.71,North,0,0.0,-999.0,87,0.00,,,-99.99,,2013-06-27 03:16:00,
2013-06-26 19:21:00,54.4,50.4,29.71,North,0,0.0,-999.0,86,0.00,,,-99.99,,2013-06-27 03:21:00,
2013-06-26 19:26:00,54.5,51.1,29.71,North,0,0.0,-999.0,88,0.00,,,-99.99,,2013-06-27 03:26:00,
2013-06-26 19:31:00,54.0,50.2,29.71,North,0,0.0,-999.0,86,0.00,,,-99.99,,2013-06-27 03:31:00,
2013-06-26 19:36:00,54.1,50.8,29.71,North,0,0.0,-999.0,88,0.00,,,-99.99,,2013-06-27 03:36:00,
2013-06-26 19:41:00,54.2,51.3,29.71,North,0,0.0,-999.0,89,0.00,,,-99.99,,2013-06-27 03:41:00,
2013-06-26 19:46:00,54.5,51.4,29.71,North,0,0.0,-999.0,89,0.00,,,-99.99,,2013-06-27 03:46:00,
2013-06-26 19:51:00,54.6,51.5,29.71,North,0,0.0,-999.0,88,0.00,,,-99.99,,2013-06-27 03:51:00,
2013-06-26 19:56:00,54.3,51.0,29.71,North,0,0.0,-999.0,88,0.00,,,-99.99,,2013-06-27 03:56:00,
2013-06-26 20:01:00,54.5,51.0,29.72,North,0,0.0,-999.0,88,0.00,,,-99.99,,2013-06-27 04:01:00,
2013-06-26 20:02:00,54.6,51.2,29.72,North,0,0.0,-999.0,87,0.00,,,-99.99,,2013-06-27 04:02:00,
2013-06-26 20:03:00,54.6,51.1,29.72,North,0,0.0,-999.0,87,0.00,,,-99.99,,2013-06-27 04:03:00,
2013-06-26 20:05:00,54.9,51.6,29.72,North,0,0.0,-999.0,88,0.00,,,-99.99,,2013-06-27 04:05:00,
2013-06-26 20:06:00,54.7,51.4,29.72,North,0,0.0,-999.0,88,0.00,,,-99.99,,2013-06-27 04:06:00,
2013-06-26 20:11:00,54.8,51.4,29.72,North,0,0.0,-999.0,88,0.00,,,-99.99,,2013-06-27 04:11:00,
2013-06-26 20:16:00,55.1,51.5,29.72,North,0,0.0,-999.0,87,0.00,,,-99.99,,2013-06-27 04:16:00,
2013-06-26 20:21:00,55.0,51.0,29.72,North,0,0.0,-999.0,86,0.00,,,-99.99,,2013-06-27 04:21:00,
2013-06-26 20:26:00,54.7,51.1,29.72,North,0,0.0,-999.0,87,0.00,,,-99.99,,2013-06-27 04:26:00,
2013-06-26 20:31:00,54.6,51.0,29.72,North,0,0.0,-999.0,87,0.00,,,-99.99,,2013-06-27 04:31:00,
2013-06-26 20:36:00,54.5,50.8,29.72,North,0,0.0,-999.0,87,0.00,,,-99.99,,2013-06-27 04:36:00,
2013-06-26 20:41:00,54.3,50.3,29.72,North,0,0.0,-999.0,86,0.00,,,-99.99,,2013-06-27 04:41:00,
2013-06-26 20:46:00,54.4,50.9,29.72,North,0,0.0,-999.0,87,0.00,,,-99.99,,2013-06-27 04:46:00,
2013-06-26 20:51:00,54.5,51.0,29.72,North,0,0.0,-999.0,88,0.00,,,-99.99,,2013-06-27 04:51:00,
2013-06-26 20:56:00,54.6,51.0,29.72,North,0,0.0,-999.0,87,0.00,,,-99.99,,2013-06-27 04:56:00,
2013-06-26 21:01:00,54.5,50.6,29.74,North,0,0.0,-999.0,86,0.00,,,-99.99,,2013-06-27 05:01:00,
2013-06-26 21:06:00,54.3,50.6,29.74,North,0,0.0,-999.0,87,0.00,,,-99.99,,2013-06-27 05:06:00,
2013-06-26 21:11:00,54.5,50.7,29.74,North,0,0.0,-999.0,86,0.00,,,-99.99,,2013-06-27 05:11:00,
2013-06-26 21:16:00,54.4,50.3,29.74,North,0,0.0,-999.0,86,0.00,,,-99.99,,2013-06-27 05:16:00,
2013-06-26 21:21:00,54.3,50.3,29.74,North,0,0.0,-999.0,85,0.00,,,-99.99,,2013-06-27 05:21:00,
2013-06-26 21:26:00,54.3,50.3,29.74,North,0,0.0,-999.0,86,0.00,,,-99.99,,2013-06-27 05:26:00,
2013-06-26 21:31:00,54.3,50.2,29.74,North,0,0.0,-999.0,85,0.00,,,-99.99,,2013-06-27 05:31:00,
2013-06-26 21:36:00,53.7,49.6,29.74,North,0,0.0,-999.0,85,0.00,,,-99.99,,2013-06-27 05:36:00,
2013-06-26 21:41:00,53.4,49.6,29.74,North,0,0.0,-999.0,86,0.00,,,-99.99,,2013-06-27 05:41:00,
2013-06-26 21:48:00,53.3,49.5,29.74,North,0,0.0,-999.0,86,0.00,,,-99.99,,2013-06-27 05:48:00,
2013-06-26 21:53:00,53.3,49.7,29.74,North,0,0.0,-999.0,87,0.00,,,-99.99,,2013-06-27 05:53:00,
2013-06-26 21:58:00,53.2,49.6,29.74,North,0,0.0,-999.0,87,0.00,,,-99.99,,2013-06-27 05:58:00,
2013-06-26 22:03:00,53.0,49.5,29.77,North,0,0.0,-999.0,87,0.00,,,-99.99,,2013-06-27 06:03:00,
2013-06-26 22:08:00,52.9,49.4,29.77,North,0,0.0,-999.0,87,0.00,,,-99.99,,2013-06-27 06:08:00,
2013-06-26 22:13:00,53.0,49.6,29.77,North,0,0.0,-999.0,87,0.00,,,-99.99,,2013-06-27 06:13:00,
2013-06-26 22:18:00,53.0,49.5,29.77,North,0,0.0,-999.0,87,0.00,,,-99.99,,2013-06-27 06:18:00,
2013-06-26 22:23:00,52.9,49.6,29.77,North,0,0.0,-999.0,88,0.00,,,-99.99,,2013-06-27 06:23:00,
2013-06-26 22:28:00,52.9,49.7,29.77,North,0,0.0,-999.0,88,0.00,,,-99.99,,2013-06-27 06:28:00,
2013-06-26 22:33:00,53.1,49.7,29.77,North,0,0.0,-999.0,88,0.00,,,-99.99,,2013-06-27 06:33:00,
2013-06-26 22:38:00,52.9,49.7,29.77,North,0,0.0,-999.0,88,0.00,,,-99.99,,2013-06-27 06:38:00,
2013-06-26 22:43:00,53.0,49.7,29.77,North,0,0.0,-999.0,88,0.00,,,-99.99,,2013-06-27 06:43:00,
2013-06-26 22:48:00,52.9,49.7,29.77,North,0,0.0,-999.0,88,0.00,,,-99.99,,2013-06-27 06:48:00,
2013-06-26 22:53:00,52.9,49.8,29.77,North,0,0.0,-999.0,88,0.00,,,-99.99,,2013-06-27 06:53:00,
2013-06-26 22:58:00,53.0,49.9,29.77,North,0,0.0,-999.0,89,0.00,,,-99.99,,2013-06-27 06:58:00,
2013-06-26 23:03:00,52.9,49.7,29.77,North,0,0.0,-999.0,88,0.00,,,-99.99,,2013-06-27 07:03:00,
2013-06-26 23:08:00,53.0,49.8,29.77,North,0,0.0,-999.0,88,0.00,,,-99.99,,2013-06-27 07:08:00,
2013-06-26 23:13:00,52.9,49.7,29.77,North,0,0.0,-999.0,88,0.00,,,-99.99,,2013-06-27 07:13:00,
2013-06-26 23:18:00,52.9,49.7,29.77,North,0,0.0,-999.0,89,0.00,,,-99.99,,2013-06-27 07:18:00,
2013-06-26 23:23:00,53.0,49.8,29.77,North,0,0.0,-999.0,88,0.00,,,-99.99,,2013-06-27 07:23:00,
2013-06-26 23:28:00,52.9,49.5,29.77,North,0,0.0,-999.0,88,0.00,,,-99.99,,2013-06-27 07:28:00,
2013-06-26 23:33:00,52.8,49.6,29.77,North,0,0.0,-999.0,88,0.00,,,-99.99,,2013-06-27 07:33:00,
2013-06-26 23:38:00,52.9,49.7,29.77,North,0,0.0,-999.0,88,0.00,,,-99.99,,2013-06-27 07:38:00,
2013-06-26 23:44:00,52.9,49.9,29.77,North,0,0.0,-999.0,89,0.00,,,-99.99,,2013-06-27 07:44:00,
2013-06-26 23:49:00,52.7,49.5,29.77,North,0,0.0,-999.0,88,0.00,,,-99.99,,2013-06-27 07:49:00,
2013-06-26 23:54:00,52.5,49.3,29.77,North,0,0.0,-999.0,88,0.00,,,-99.99,,2013-06-27 07:54:00,
2013-06-26 23:59:00,52.4,49.3,29.81,North,0,0.0,-999.0,89,0.00,,,-99.99,,2013-06-27 07:59:00,